GFSGBSN_sfc_dewp_000.txt.gz
Dewpoint
60 58 57 57 57 57 56 56 54 54 54 55 55 53 54 54 54 55 55 55 53 52 52 51 51 51 50 47 41 44 62 60 48 33 29 28 27 27 25 24 12 11 7 12 9 6 8
59 58 57 57 57 57 56 57 56 54 54 54 53 53 53 53 54 53 54 55 52 52 51 50 50 51 47 37 32 46 51 44 38 33 31 28 27 27 24 13 15 14 8 8 14 8 6
58 57 57 57 57 56 57 57 56 54 54 54 54 53 53 54 54 53 53 53 52 51 50 50 50 49 49 38 35 39 41 36 37 34 30 32 28 24 22 14 14 12 5 9 10 14 13
58 58 57 57 56 56 56 56 56 54 54 53 54 53 53 53 53 53 52 52 51 51 50 50 51 50 44 40 41 37 28 22 31 33 30 28 32 28 20 19 17 12 13 7 10 17 18
58 58 57 57 56 56 56 56 55 54 53 53 53 52 52 53 52 52 52 51 51 50 49 51 49 48 35 38 31 24 22 22 25 27 28 23 23 21 16 14 12 13 9 12 14 18 18
58 57 57 57 56 56 56 55 55 54 53 53 53 52 53 54 54 51 50 51 50 51 50 49 49 40 34 26 30 22 23 24 26 28 26 25 23 18 19 10 8 7 10 21 12 22 29
57 57 57 57 56 56 56 56 54 53 53 53 53 54 55 55 54 51 49 49 44 43 48 28 30 30 35 31 28 20 23 27 27 26 23 25 20 16 17 16 12 14 13 13 16 22 31
57 57 57 57 57 56 56 55 55 55 55 55 54 55 55 55 54 51 50 48 39 41 39 43 42 38 38 34 23 23 30 25 25 22 25 22 19 21 26 26 23 22 20 22 25 28 31
56 56 56 57 57 56 56 55 56 55 54 54 54 54 55 54 53 52 48 45 49 46 37 29 38 35 30 29 23 26 29 29 24 22 22 20 21 26 28 26 26 27 21 22 25 30 30
56 55 56 56 56 56 55 55 55 55 54 53 53 53 54 53 50 49 46 45 51 44 25 24 24 24 28 29 25 27 29 27 26 23 25 27 29 26 25 24 26 24 27 26 28 27 25
55 55 55 55 55 54 54 55 55 54 53 53 53 53 53 51 48 52 49 56 51 38 17 22 24 27 26 27 22 26 34 27 24 25 26 26 27 26 24 25 28 27 28 26 24 23 23
55 55 55 54 54 53 53 54 53 53 53 53 53 53 53 51 49 49 53 44 37 32 17 22 26 24 25 28 28 28 30 32 29 29 28 27 29 27 27 29 27 29 30 30 30 28 22
55 54 54 54 53 52 53 53 53 52 52 53 53 53 51 51 51 57 49 36 28 25 27 22 24 25 26 28 29 29 28 28 25 24 26 26 26 27 29 27 28 29 27 25 23 21 23
54 54 53 53 52 52 53 53 52 52 52 52 53 53 52 51 53 52 40 29 24 28 26 25 26 26 26 29 29 29 27 26 28 28 27 24 21 25 26 26 24 25 27 25 19 20 23
54 53 53 52 52 52 52 52 52 51 51 52 52 51 50 56 53 48 36 26 28 30 25 26 27 25 27 29 28 29 28 26 29 29 27 24 23 26 26 27 28 26 23 27 26 25 23
54 53 52 51 52 52 52 52 51 51 51 53 51 50 48 54 49 43 36 32 37 38 31 28 24 27 26 27 28 29 30 33 31 33 31 29 21 26 25 29 28 26 27 21 24 17 17
53 52 51 51 52 52 51 51 51 51 52 53 44 36 39 54 39 34 28 33 39 39 35 27 27 28 28 26 30 31 30 34 36 34 32 28 25 23 27 26 25 26 24 27 26 24 17
51 51 51 51 51 51 50 49 51 51 52 52 38 30 45 39 30 35 30 38 40 32 34 35 33 30 28 33 33 33 32 34 38 37 28 31 28 24 23 27 30 26 25 22 18 17 23
51 50 51 51 51 51 49 50 51 51 53 49 40 48 53 38 27 28 32 38 38 31 32 33 34 35 37 36 33 36 36 38 33 34 31 30 27 25 24 24 25 25 29 28 26 26 24
50 50 51 51 51 49 51 51 51 51 52 48 45 41 44 40 35 28 29 31 33 35 35 34 35 36 36 37 38 36 36 37 35 36 42 36 29 23 21 22 24 21 27 27 24 21 22
50 50 50 50 49 49 50 51 51 51 51 50 42 40 42 35 37 32 30 35 33 33 35 34 33 34 34 33 35 35 37 34 35 40 39 30 25 27 29 29 26 22 22 28 24 23 21
49 49 49 48 49 48 49 50 50 51 50 47 45 38 35 35 40 39 37 34 34 34 34 32 32 37 35 33 32 35 34 30 27 38 36 32 25 26 28 31 29 24 23 24 26 25 27
50 48 48 48 48 49 50 50 50 50 49 44 48 46 38 36 35 37 36 38 36 36 39 38 36 36 34 39 39 39 38 38 37 36 32 28 28 20 13 26 22 16 22 24 24 26 27
49 48 48 48 50 50 50 50 50 50 49 48 49 47 40 31 32 35 38 39 37 36 36 40 39 36 39 41 38 35 36 39 39 39 34 29 26 21 19 18 7 19 25 28 27 30 32
50 49 50 50 50 49 49 49 49 49 50 51 51 46 41 30 33 36 39 41 41 42 41 42 44 41 40 34 32 30 29 28 31 37 33 30 26 23 17 17 16 16 32 31 29 26 35
49 50 50 49 49 49 49 49 48 49 50 51 51 48 44 39 37 39 40 40 35 36 36 40 45 42 36 30 27 24 23 26 27 33 35 31 26 22 16 9 4 17 26 32 30 26 36
49 49 49 49 48 48 48 48 48 49 51 51 51 50 46 42 44 42 39 39 40 38 36 39 40 38 35 26 22 22 22 28 26 26 25 27 25 16 15 12 19 22 31 31 24 25 37
49 48 49 48 48 48 49 49 49 49 51 52 52 52 47 45 45 47 45 41 42 40 37 40 38 37 31 27 24 25 23 29 27 29 30 29 24 22 21 14 14 28 31 28 32 33 37
48 48 49 50 48 48 48 48 48 49 50 51 51 54 51 46 45 48 48 47 46 41 43 40 38 38 37 31 24 31 30 32 25 24 32 26 26 25 24 24 28 30 33 34 35 33 37

GFSGBSN_sfc_dewp_003.txt.gz
Dewpoint
60 60 59 59 57 57 57 57 56 55 54 55 55 53 54 53 53 55 53 54 55 54 53 52 51 50 49 47 43 47 61 60 52 32 28 28 28 28 27 26 15 13 9 12 6 11 22
60 60 59 58 57 57 57 57 56 56 54 55 55 53 54 53 53 54 53 53 54 54 53 51 50 50 47 37 35 50 52 47 40 31 29 28 25 28 26 18 17 15 11 12 10 8 9
60 59 59 57 57 56 57 56 56 56 55 54 54 53 53 53 53 53 52 54 54 53 50 49 50 50 48 40 36 46 41 40 36 33 31 31 29 27 26 12 14 13 11 12 15 16 17
60 59 58 57 56 56 56 56 56 56 55 54 54 53 53 52 53 52 53 53 52 51 49 49 52 49 44 44 44 40 36 29 35 35 31 30 31 25 19 19 18 13 17 11 12 18 19
59 59 58 57 56 56 56 56 56 56 55 54 53 53 52 53 53 52 53 52 50 48 49 52 49 47 41 42 35 31 24 22 25 32 32 27 28 24 18 18 16 18 10 13 14 26 19
59 59 58 57 57 56 56 56 56 55 54 54 53 52 53 53 53 52 51 50 50 51 50 50 49 43 37 29 35 22 26 27 28 28 29 28 23 21 18 14 12 13 12 13 15 22 30
59 59 58 57 57 57 57 57 56 55 53 54 53 52 53 54 54 51 50 49 45 44 48 38 37 33 32 34 28 21 26 31 30 29 25 26 20 18 18 17 13 14 14 14 17 29 33
56 58 58 57 57 57 57 56 56 55 53 54 53 53 54 53 53 50 50 47 41 43 42 46 43 41 38 36 25 23 32 28 29 25 24 24 21 21 27 25 23 23 23 25 27 30 32
55 57 57 57 57 57 57 56 55 54 54 54 52 53 54 53 52 49 48 49 50 48 41 33 41 35 31 32 26 27 31 31 25 24 23 25 22 27 27 26 27 26 25 25 26 30 30
53 55 57 57 57 56 56 56 55 55 55 54 52 53 53 52 48 49 48 49 51 49 29 27 26 28 29 29 29 29 32 29 27 24 27 28 28 25 25 26 26 26 27 30 29 27 24
53 53 56 56 56 55 55 55 54 55 54 53 52 53 53 51 49 50 51 57 49 43 24 26 25 29 29 26 26 29 33 29 26 26 26 26 27 25 26 26 30 28 31 28 25 24 24
53 52 55 55 55 55 54 54 54 54 53 52 52 53 53 50 50 50 52 49 43 35 22 24 27 26 28 30 31 30 31 33 31 30 29 28 28 27 26 29 29 32 31 31 30 28 25
52 52 52 55 55 54 54 53 53 53 53 51 52 53 51 51 49 54 53 40 33 29 29 23 25 27 28 31 30 29 29 30 27 28 28 26 26 26 30 28 28 30 29 27 25 27 24
51 52 51 55 54 54 53 53 53 53 52 50 52 52 51 51 52 51 42 33 25 27 26 25 27 27 27 31 30 28 28 27 29 29 27 22 23 23 28 27 26 27 28 29 22 25 23
50 52 52 54 54 53 52 52 52 52 51 50 52 51 50 51 53 51 39 31 26 27 25 26 27 26 30 30 29 30 28 27 28 29 28 27 23 25 28 28 27 25 25 28 27 25 25
50 52 52 53 53 52 52 52 52 52 50 52 50 49 49 55 54 44 37 29 31 34 33 29 25 29 28 30 29 29 30 33 30 34 32 30 24 26 26 28 29 27 27 24 26 23 20
49 51 52 53 52 52 52 52 52 52 50 52 49 46 45 53 45 39 34 30 36 39 35 28 29 29 29 29 31 30 30 34 36 33 32 27 30 27 27 26 25 26 25 27 26 25 19
49 51 51 53 52 51 52 52 51 51 51 51 44 35 48 43 34 36 32 35 39 38 35 36 32 32 31 34 33 33 32 34 39 39 32 31 32 29 22 27 30 26 25 25 24 18 24
50 50 50 52 51 51 51 51 50 51 52 49 39 48 53 43 31 33 34 36 39 35 33 35 37 37 39 37 34 36 36 39 36 35 34 33 31 28 24 22 26 26 28 26 27 29 25
49 49 50 52 51 51 51 50 50 51 52 49 46 43 46 40 36 32 31 33 33 37 36 36 36 38 39 38 39 37 37 38 38 38 41 37 29 28 24 22 25 25 28 26 25 26 24
49 49 51 51 51 51 50 50 50 51 52 49 43 41 45 39 34 32 30 31 32 34 37 36 36 36 37 36 37 37 37 35 37 40 39 33 29 28 29 28 26 21 26 26 22 24 26
50 51 50 50 50 50 50 50 50 51 52 48 41 40 38 39 39 32 33 36 34 35 37 35 35 38 38 35 35 36 36 33 32 39 35 33 30 29 30 29 28 26 24 25 27 26 24
49 50 50 49 49 49 49 50 50 51 51 47 48 45 40 35 39 34 36 34 35 38 40 39 37 38 37 40 40 39 38 38 38 37 33 31 31 26 21 25 23 23 25 25 27 27 28
50 49 49 49 48 48 49 50 50 51 50 48 49 45 39 32 36 34 38 39 37 37 37 41 40 39 42 42 40 38 38 39 37 35 34 30 27 25 27 23 21 21 28 26 26 26 27
49 49 49 48 49 50 50 50 50 50 51 52 52 46 39 33 34 35 39 41 42 43 42 43 44 43 43 38 37 33 34 33 34 34 31 30 29 25 28 21 19 17 24 30 30 25 32
48 48 49 50 49 49 49 49 50 50 50 52 52 49 44 37 35 35 41 41 39 39 40 43 44 42 38 34 33 31 30 29 28 34 35 31 30 30 24 24 19 23 22 34 31 27 31
49 49 49 49 49 48 48 49 49 49 50 52 52 50 48 41 44 42 40 40 41 40 40 40 40 41 38 33 32 32 30 29 26 28 30 33 29 28 21 28 25 24 29 32 26 28 35
48 48 48 48 48 48 48 48 49 49 50 52 52 53 48 46 47 48 44 42 42 43 40 42 41 41 36 35 35 32 33 32 30 30 32 30 29 28 23 23 23 27 32 32 36 36 36
48 48 48 48 48 47 48 49 49 49 50 52 52 54 52 47 47 49 48 48 48 43 43 42 41 40 40 36 33 33 33 33 29 31 33 29 31 30 28 30 32 31 37 36 36 35 37

GFSGBSN_sfc_dewp_006.txt.gz
Dewpoint
61 61 60 60 59 59 58 58 57 56 56 54 56 56 55 54 54 55 54 54 54 55 54 52 52 51 49 43 35 46 60 58 46 33 26 26 24 22 17 21 22 20 17 12 4 13 28
60 60 60 60 59 59 58 57 57 57 56 54 55 55 55 54 54 54 54 54 54 54 52 51 51 51 47 35 33 45 50 45 37 30 29 27 22 23 22 23 20 17 10 7 9 19 18
57 60 60 59 59 58 57 57 57 57 56 56 54 55 55 54 54 54 54 54 54 52 51 50 50 49 47 35 35 44 43 38 34 29 29 31 27 23 24 20 14 14 8 10 15 17 15
57 58 60 59 58 57 56 56 56 56 56 56 54 55 54 53 53 54 53 53 52 51 50 50 51 49 41 40 39 39 38 36 36 34 31 30 31 27 24 18 13 10 10 8 17 13 16
55 57 60 59 58 57 56 56 56 56 56 56 53 54 53 53 53 53 53 52 51 49 49 51 49 48 34 43 33 29 33 20 31 34 34 27 30 26 20 15 11 13 5 8 11 22 14
54 56 58 59 58 57 56 56 56 56 56 55 54 54 53 53 53 53 51 51 50 50 50 50 49 45 38 26 31 25 23 23 25 30 28 27 22 20 19 12 10 9 5 6 7 23 16
54 56 57 59 58 57 57 57 56 55 55 55 53 54 53 53 54 51 50 49 47 46 48 37 33 35 27 29 31 20 24 26 26 24 21 25 16 14 17 14 12 11 12 9 17 29 29
52 54 56 59 58 57 57 57 56 55 55 54 54 54 53 54 53 51 49 46 43 47 36 43 42 38 36 34 25 21 29 20 22 14 24 20 18 22 25 18 16 14 12 18 24 29 28
52 53 55 56 58 57 57 57 56 55 55 54 54 53 53 54 52 49 48 46 51 50 42 36 40 32 29 33 21 18 27 26 21 13 22 16 24 27 22 21 20 22 18 24 18 27 29
51 52 54 55 57 57 56 56 56 55 54 53 54 53 53 52 48 48 45 45 47 51 28 24 26 29 27 27 25 29 31 26 26 21 24 25 26 24 23 22 25 20 25 24 26 24 18
50 52 52 53 55 56 55 55 55 55 54 54 53 52 52 51 51 46 51 56 56 49 23 23 23 27 28 24 26 29 31 27 22 25 27 26 25 24 23 25 28 26 30 27 25 23 24
49 51 52 52 54 56 55 55 54 54 54 54 52 52 52 50 51 52 54 54 50 37 20 22 23 25 26 27 27 29 29 30 30 27 27 27 28 27 27 29 28 31 29 28 27 25 23
49 50 51 52 54 55 55 54 54 53 54 53 52 52 52 51 47 55 59 49 33 28 25 20 21 24 25 25 28 28 28 27 23 25 25 25 26 27 29 28 31 29 26 22 19 23 22
48 49 50 52 52 54 54 54 53 53 53 52 52 52 53 51 53 56 49 34 24 20 22 23 23 25 24 26 28 28 28 25 29 26 24 18 23 24 28 27 24 28 25 22 16 22 15
48 49 50 51 51 54 54 53 52 52 52 51 51 51 50 52 54 54 44 40 26 25 23 23 24 22 26 27 26 28 28 27 27 29 20 22 21 26 28 28 27 26 26 28 28 29 27
48 48 48 49 51 53 54 53 52 52 51 51 49 49 49 56 57 52 44 33 25 31 30 25 20 23 24 25 23 26 28 30 29 31 33 28 23 26 27 28 29 27 27 26 29 24 19
47 47 47 49 51 52 53 52 52 52 51 51 50 45 53 59 55 44 39 31 30 37 36 27 23 24 24 27 26 23 25 31 32 30 31 27 27 27 29 26 24 26 24 24 26 28 18
47 47 47 48 51 52 53 52 52 51 51 51 49 41 54 55 43 37 34 30 38 36 36 33 30 28 28 31 28 28 27 30 37 33 30 30 31 31 25 28 29 27 24 21 21 18 28
47 47 47 48 51 51 52 52 52 51 51 50 43 46 52 48 38 44 34 31 36 33 31 34 31 33 36 34 32 34 34 36 36 35 33 33 31 28 25 27 27 26 25 22 26 31 24
46 47 48 49 50 51 52 51 51 51 51 50 43 46 49 40 37 34 31 30 27 36 34 35 36 38 38 36 38 37 37 36 37 36 41 36 32 29 27 21 25 27 26 24 21 25 20
46 47 47 49 49 50 51 51 50 51 51 51 46 42 41 44 37 33 32 29 25 32 35 35 36 35 36 37 36 36 37 34 37 40 38 35 31 28 26 27 25 23 23 25 21 22 23
47 47 48 49 49 49 51 50 50 50 51 51 44 43 43 39 36 32 32 28 25 32 34 33 34 37 38 38 34 37 36 34 34 38 37 34 34 31 30 29 26 25 22 24 24 23 23
47 47 47 48 49 51 50 50 50 50 51 47 49 45 41 40 36 33 31 29 27 37 40 37 36 39 38 39 41 40 39 38 36 37 38 36 36 29 24 27 27 32 28 22 23 24 25
47 47 48 49 49 51 50 50 50 50 51 47 51 45 43 41 39 33 29 29 36 37 39 40 40 40 42 42 41 40 39 37 36 35 34 35 32 32 33 29 30 18 25 24 23 23 23
47 48 50 51 50 50 49 49 49 50 51 51 54 47 42 41 39 34 32 30 39 42 43 42 44 43 43 41 41 37 40 41 39 34 32 32 34 33 37 25 22 11 19 22 25 18 25
49 49 50 49 49 48 48 49 50 51 51 54 55 54 47 45 41 34 33 39 42 43 44 43 44 45 40 44 42 38 33 30 31 34 36 31 34 34 31 35 33 22 23 34 31 21 28
49 49 49 48 48 49 49 49 50 50 51 54 55 56 44 39 41 41 37 40 43 44 44 43 43 43 40 43 44 42 35 31 28 31 35 36 37 36 32 36 28 23 28 33 23 24 32
49 49 49 49 49 49 49 49 49 50 50 53 56 57 52 47 46 46 44 44 44 45 45 44 42 43 44 45 45 40 42 35 31 30 33 32 35 36 32 35 31 26 32 32 33 38 36
48 48 48 48 48 48 49 49 49 49 50 53 54 55 55 51 49 51 50 49 47 45 45 45 44 43 45 44 44 43 39 37 37 35 33 32 34 35 31 31 31 32 35 35 37 38 37

GFSGBSN_sfc_dewp_009.txt.gz
Dewpoint
57 58 61 60 60 59 59 59 58 57 57 56 56 55 56 55 55 55 55 54 55 55 55 53 52 51 49 44 37 51 60 58 43 39 29 22 22 21 16 15 15 18 17 16 10 12 23
55 57 58 60 60 60 59 59 58 57 57 57 56 55 55 55 55 55 54 54 54 55 53 51 51 51 48 37 31 42 41 39 33 33 25 24 22 19 18 17 18 18 18 8 16 21 27
54 55 57 58 59 59 59 58 57 57 57 57 56 54 55 55 55 54 54 54 54 53 51 50 50 48 45 36 33 41 38 31 30 28 22 23 23 22 24 23 20 14 10 8 22 22 26
54 54 56 57 59 58 58 57 57 57 57 57 56 54 55 54 54 53 54 53 52 50 49 49 50 49 40 36 35 33 38 36 35 31 29 30 31 29 26 20 16 12 14 20 24 19 13
53 54 54 56 57 58 58 57 56 57 57 56 56 54 54 54 53 53 53 51 50 49 48 49 50 48 36 42 31 29 32 29 30 31 32 29 30 29 26 19 13 11 8 15 17 12 4
52 53 54 54 56 58 58 57 56 56 56 56 56 54 54 53 53 53 52 50 50 49 49 49 48 48 38 23 29 24 28 24 28 32 28 27 27 25 22 14 11 12 9 10 8 8 6
50 51 53 54 56 57 59 58 56 56 55 56 55 54 54 53 53 52 50 48 46 47 46 38 34 32 26 27 29 23 22 23 28 30 22 26 21 19 18 17 15 12 6 5 8 12 10
50 51 52 53 55 57 59 58 56 56 55 55 55 54 54 53 54 51 50 43 44 49 41 36 35 33 32 30 26 20 24 21 24 19 21 22 22 22 18 16 12 10 10 12 14 18 24
50 51 51 52 54 56 58 58 56 56 55 55 54 54 54 54 52 50 48 44 49 50 45 34 33 31 27 30 21 18 21 20 19 20 19 20 20 22 18 14 12 12 10 18 17 23 23
50 50 51 52 53 54 57 57 57 56 55 55 54 53 53 52 48 48 46 44 44 48 37 26 27 28 28 27 22 25 24 23 21 17 23 23 24 20 15 13 18 15 20 20 17 22 16
48 49 50 51 52 53 54 56 56 56 55 54 53 53 53 51 53 45 51 54 51 54 28 23 23 27 26 24 23 24 28 22 21 19 22 22 23 18 17 22 24 31 26 23 22 22 19
47 49 49 50 51 52 53 55 55 55 54 54 53 53 53 51 51 51 54 58 56 41 24 21 22 23 25 22 22 25 20 25 25 22 20 23 26 23 24 26 25 28 26 24 21 21 22
48 49 49 49 51 52 52 55 55 54 54 54 53 53 52 51 47 54 58 55 40 31 22 17 19 21 22 20 22 23 21 21 15 21 21 21 21 26 26 24 27 24 24 19 17 21 20
47 48 48 49 50 51 52 54 54 54 53 53 52 52 53 51 51 57 57 48 31 23 21 18 17 20 20 20 21 23 18 16 17 20 19 17 22 23 26 24 20 24 20 21 16 18 12
44 47 48 48 49 50 52 54 54 53 53 52 52 51 51 52 55 55 50 41 31 17 19 19 18 19 21 20 20 25 24 18 17 21 20 19 19 25 26 26 23 21 24 23 24 26 23
43 46 47 48 48 50 51 53 53 53 52 51 50 49 49 54 56 53 45 35 28 24 22 20 18 19 21 21 19 23 22 23 25 27 29 21 20 23 26 28 28 26 24 23 22 18 18
44 44 47 47 48 49 51 53 53 53 51 51 50 45 47 55 55 46 40 35 26 29 29 24 20 19 21 21 20 21 22 28 29 28 26 22 23 27 27 25 19 25 21 22 24 28 23
43 45 46 47 47 49 50 52 53 52 51 50 49 41 57 58 42 44 40 33 31 31 35 28 29 22 23 24 23 21 20 22 31 30 23 24 27 32 25 27 27 27 24 24 26 21 26
44 43 45 46 47 48 50 52 52 51 51 49 46 46 58 55 42 47 37 30 28 31 31 30 26 25 25 25 24 23 23 38 38 34 27 32 27 28 25 27 26 22 23 23 20 30 22
43 45 46 46 46 45 49 51 52 51 51 51 43 42 50 50 44 39 35 30 30 34 30 30 25 29 31 29 30 30 31 36 38 35 40 37 27 27 26 23 24 26 20 21 22 26 24
45 46 45 46 46 45 49 51 52 51 50 50 44 40 43 45 43 39 35 30 26 29 33 34 33 29 28 29 31 32 35 36 37 40 35 35 30 28 26 25 22 20 19 20 18 19 23
45 45 46 46 47 47 49 50 51 51 50 50 42 39 41 43 42 37 35 28 26 28 32 33 30 28 29 30 32 29 35 36 35 38 37 37 33 33 33 27 25 23 20 16 18 19 15
45 45 46 47 48 48 49 50 51 50 50 48 48 50 43 43 42 36 35 28 27 32 39 33 30 34 32 37 42 41 40 38 36 39 39 37 39 33 25 29 28 32 30 23 19 18 19
46 46 47 47 48 48 48 47 50 50 50 47 50 45 45 42 41 34 30 29 27 31 36 37 36 35 43 42 41 40 37 36 35 37 38 40 37 35 31 31 29 18 22 19 22 19 19
45 46 48 48 48 47 48 48 50 50 50 51 55 48 44 46 37 31 30 27 29 38 40 41 43 43 43 41 40 38 40 41 36 31 31 34 37 34 38 25 20 15 15 19 20 17 21
46 47 47 47 48 48 48 48 50 50 50 55 57 55 45 45 39 31 30 28 39 41 45 45 45 46 44 46 44 33 31 30 33 35 33 31 37 34 30 34 31 27 24 30 28 19 24
46 46 47 48 48 48 49 49 49 49 50 55 55 60 41 36 34 35 32 32 33 39 42 45 45 44 44 47 44 38 34 31 29 31 37 37 38 37 33 36 31 23 26 29 22 28 30
46 47 48 49 48 48 49 49 49 49 50 53 55 58 43 36 42 39 33 36 35 38 46 46 44 45 46 44 46 40 43 38 33 31 33 33 36 38 36 35 31 24 29 29 36 34 31
46 48 48 48 48 48 48 48 48 49 50 52 55 56 55 42 50 50 51 50 43 41 42 47 40 44 45 44 46 49 42 40 39 34 34 33 34 36 31 32 32 30 29 30 34 35 34

GFSGBSN_sfc_dewp_012.txt.gz
Dewpoint
55 56 57 58 60 60 60 60 59 58 57 57 57 57 56 55 55 55 54 54 53 55 55 54 53 52 49 44 40 49 61 56 38 38 32 23 18 18 18 18 15 15 17 16 19 25 27
53 54 55 56 57 60 60 60 59 58 57 57 57 56 55 55 56 55 53 54 54 55 54 53 51 51 48 37 33 45 43 40 29 31 28 22 20 20 18 14 14 16 17 12 15 19 33
53 53 54 55 57 57 60 59 59 58 57 57 57 56 55 55 55 55 54 54 54 54 53 51 50 47 44 37 33 40 35 30 30 31 25 23 23 21 22 24 20 19 16 12 21 21 26
53 53 54 54 55 57 58 59 58 58 57 57 57 56 55 55 55 54 54 54 53 52 51 50 50 48 42 37 36 33 37 34 33 30 29 28 31 28 26 27 20 15 14 13 24 23 22
52 52 53 53 54 55 57 58 58 58 57 57 56 56 55 54 54 53 53 53 52 51 50 50 50 48 39 42 32 30 30 31 29 32 31 28 29 29 28 26 17 18 14 24 22 24 13
51 51 52 53 53 54 56 58 58 57 57 56 56 56 54 54 53 53 53 52 52 50 49 47 46 44 44 28 25 24 27 28 28 31 30 29 27 26 26 19 14 16 14 19 16 15 4
50 51 51 51 52 53 55 57 58 57 56 56 56 56 54 54 53 53 50 48 46 47 47 35 35 33 23 23 27 26 22 23 26 29 27 27 24 23 22 24 22 18 15 12 12 8 6
50 52 51 51 51 52 53 56 57 57 56 56 56 55 54 54 53 53 50 45 45 49 45 40 27 34 31 31 26 22 22 21 26 24 22 22 23 23 24 21 20 17 15 10 10 11 12
49 50 51 51 52 52 53 55 57 57 56 55 55 54 54 53 53 51 49 44 45 46 44 37 24 25 29 27 24 19 21 21 22 20 21 29 28 22 21 21 19 15 15 17 13 10 12
49 49 50 51 51 51 52 53 56 57 56 55 55 54 53 53 49 50 47 47 46 49 39 30 26 28 28 27 23 17 21 19 20 20 21 33 31 22 20 16 14 22 26 19 21 26 14
47 48 49 50 51 50 51 52 55 57 56 55 54 54 53 52 53 46 53 50 52 55 30 26 25 27 25 23 21 19 22 23 21 20 27 23 22 21 19 21 23 25 28 24 19 19 24
46 48 48 48 49 50 51 52 53 55 55 55 53 53 53 52 51 51 52 57 58 44 29 22 23 24 22 21 19 19 21 23 20 22 24 28 28 24 26 23 23 27 24 25 18 19 29
44 45 47 47 48 49 50 51 53 55 55 54 53 53 52 51 48 52 54 58 43 31 23 20 21 21 21 20 19 20 22 17 17 20 22 22 20 22 23 17 22 21 22 20 21 24 25
44 44 47 48 47 49 50 51 52 54 54 54 53 52 52 51 52 55 56 52 32 25 22 15 17 19 19 18 19 18 17 15 17 16 18 19 18 20 20 18 26 23 16 24 27 28 24
41 44 46 48 48 49 49 50 52 53 53 53 52 52 51 52 54 56 53 43 33 24 22 19 15 17 18 17 17 20 18 15 14 16 20 31 25 25 22 20 21 14 19 21 22 34 27
41 43 46 46 48 49 49 50 51 53 53 52 50 50 47 53 55 52 49 40 33 28 20 19 15 17 17 18 17 19 20 19 15 17 26 39 33 32 24 25 24 24 21 24 26 24 20
42 44 45 45 47 48 49 50 51 53 53 52 49 44 49 55 55 48 43 39 37 29 23 22 18 16 17 20 17 20 20 20 23 23 24 24 32 25 26 23 16 23 21 21 19 30 32
42 45 44 44 45 47 48 49 51 53 52 51 48 40 54 56 43 37 41 38 35 29 26 28 25 19 19 22 20 19 26 26 28 24 24 23 26 36 24 23 22 24 26 21 35 26 35
41 44 43 44 45 46 48 48 50 52 52 51 44 47 56 54 35 42 40 37 33 30 28 30 25 26 23 24 23 21 20 37 37 28 27 27 27 32 24 26 26 23 19 22 25 37 32
43 43 43 44 45 46 47 48 49 52 52 53 43 44 52 53 40 39 39 35 33 33 27 28 26 26 23 23 24 24 24 36 37 34 41 40 28 26 30 24 25 27 21 17 21 35 33
42 43 44 44 44 44 47 48 49 51 51 51 49 42 46 43 43 41 41 36 31 27 30 29 26 23 28 28 26 26 28 37 37 39 35 34 30 26 22 22 25 24 20 20 17 22 24
41 43 44 44 44 44 47 47 49 51 51 50 47 41 46 44 43 43 41 37 30 26 30 30 30 27 28 30 28 28 29 37 35 38 35 37 36 37 36 28 26 25 24 21 18 17 18
42 43 44 45 44 46 46 46 49 50 51 48 47 50 45 44 42 42 42 36 32 31 32 30 30 30 30 35 38 41 43 41 37 39 39 39 44 39 34 30 31 30 33 26 24 19 19
43 42 44 46 45 46 46 46 48 50 51 47 47 51 48 42 40 40 40 35 30 30 35 34 34 35 42 41 42 40 38 37 38 39 39 43 42 41 38 33 29 22 21 20 21 20 19
44 44 44 45 45 46 46 47 49 50 51 50 52 54 50 45 42 38 40 37 32 32 37 36 43 44 45 43 42 39 44 41 36 31 34 38 42 39 37 31 24 21 17 18 19 20 23
43 44 46 46 46 46 47 47 48 49 51 50 53 58 55 47 44 37 35 35 36 42 44 45 44 48 46 50 48 36 35 32 33 33 30 32 43 43 35 35 31 31 25 28 25 25 25
44 45 46 46 46 46 47 48 48 47 49 51 52 57 56 49 43 38 35 35 36 45 44 44 45 45 46 50 42 44 40 30 34 35 37 39 41 37 36 37 36 25 26 26 28 33 33
45 46 46 46 46 47 47 47 47 46 48 50 51 56 57 48 42 42 38 36 37 44 47 46 44 45 51 46 45 46 44 42 38 31 36 37 39 38 41 35 32 26 26 32 40 41 35
45 46 46 46 47 47 47 47 47 47 49 50 50 55 60 55 50 54 52 50 45 39 47 49 44 45 48 46 47 50 41 39 40 38 32 36 38 41 36 38 38 30 33 34 36 38 36

GFSGBSN_sfc_dewp_015.txt.gz
Dewpoint
54 54 55 56 56 57 59 60 59 58 58 57 57 57 57 56 56 55 53 52 52 53 55 55 54 53 50 46 45 54 60 59 43 39 34 32 32 26 18 18 19 16 16 19 35 36 40
53 53 53 54 55 56 57 59 60 59 58 57 57 56 56 56 56 56 54 54 53 54 54 55 53 53 48 42 45 52 46 41 33 35 34 32 25 22 21 20 21 18 16 12 16 29 35
53 54 53 54 54 55 57 57 59 59 58 57 57 56 56 55 55 55 54 54 53 54 54 53 52 47 45 41 39 41 41 35 29 31 30 30 26 29 28 26 29 22 17 17 24 34 34
53 53 54 53 54 54 55 56 57 59 59 58 57 56 56 55 54 54 54 53 54 54 53 52 51 47 44 43 41 38 35 32 30 31 31 32 32 32 31 30 28 19 18 15 23 26 34
52 53 53 53 53 54 54 55 56 58 59 58 57 56 55 54 54 53 53 54 54 53 53 52 47 47 44 46 38 35 34 37 34 34 34 30 30 31 30 28 26 22 18 25 22 22 26
50 52 53 52 52 53 54 55 55 57 58 57 56 56 55 54 53 53 53 53 52 51 50 47 46 43 44 35 35 32 31 31 31 34 34 33 27 28 27 26 21 17 23 24 22 19 22
50 50 52 52 52 52 52 54 55 56 57 57 56 56 55 54 53 53 52 49 46 47 46 42 39 38 30 32 29 28 28 28 30 32 28 30 25 25 24 26 23 21 18 21 20 20 14
50 51 50 51 52 51 51 52 53 55 57 57 56 55 55 54 53 53 50 47 45 45 43 46 40 36 33 34 29 28 26 24 30 29 29 28 24 25 27 25 24 23 22 19 16 10 8
50 50 50 50 52 52 52 52 53 54 57 56 56 55 54 53 53 52 49 47 46 47 44 43 43 36 28 33 30 27 24 23 25 27 25 28 27 31 26 24 23 23 24 21 18 15 17
48 48 49 50 50 52 51 52 52 54 56 56 55 54 53 52 50 50 48 49 49 48 41 36 37 25 25 29 29 27 23 23 24 23 30 29 28 27 27 24 21 24 26 28 23 23 18
46 47 48 49 49 50 50 51 52 53 55 55 55 54 53 52 51 50 52 52 49 50 31 30 27 29 29 29 27 24 24 27 25 29 26 27 31 30 27 24 24 23 26 29 30 23 28
47 46 46 47 49 49 50 51 51 53 55 55 54 53 53 52 51 50 51 51 57 42 30 31 29 27 27 27 24 22 22 29 27 23 26 26 27 29 28 25 24 29 28 27 28 25 26
47 46 46 47 48 48 48 50 50 52 54 55 54 53 52 51 48 52 51 54 40 32 30 24 24 26 26 25 24 23 23 24 20 21 27 26 23 31 32 26 29 31 28 24 22 26 25
45 46 46 45 46 48 48 48 50 51 53 54 53 53 52 50 52 53 55 50 36 32 30 24 25 25 24 23 23 23 24 21 21 21 23 25 25 26 26 21 25 27 24 27 21 26 28
44 45 45 44 44 46 47 47 49 51 53 54 53 52 51 50 51 52 51 41 34 35 25 27 21 22 21 22 19 22 20 19 17 20 21 29 29 33 31 30 27 25 25 27 32 34 32
45 45 45 44 45 45 47 47 49 50 53 53 51 50 49 51 53 51 46 39 39 35 33 26 25 21 21 21 22 21 22 21 19 18 35 38 31 35 34 34 26 26 26 24 30 24 20
44 44 44 44 44 44 46 48 49 51 53 52 51 46 48 52 53 49 39 39 40 39 35 31 26 21 21 23 24 22 23 22 22 30 37 37 35 35 35 30 23 25 23 22 25 28 22
43 43 43 43 43 44 46 47 48 50 52 51 50 42 49 53 44 43 39 40 40 37 38 36 33 27 24 27 24 23 25 34 36 29 30 37 36 32 32 28 25 23 26 28 25 19 29
42 43 43 43 44 44 46 47 47 49 51 49 46 45 52 46 34 38 37 38 41 39 38 33 34 33 34 29 31 24 34 39 39 33 30 34 26 25 24 29 30 24 23 22 32 31 25
41 42 42 41 43 45 47 47 48 48 51 50 47 41 48 49 40 35 34 35 38 41 39 35 32 34 31 28 30 28 38 40 40 38 41 38 31 26 24 26 29 28 25 23 26 26 25
41 41 41 41 41 46 46 46 48 48 50 50 47 39 44 42 43 40 35 35 37 38 38 35 31 31 30 25 30 28 39 39 40 40 37 35 28 29 29 32 28 28 27 26 19 26 24
41 41 42 41 45 45 45 45 47 48 50 48 45 39 47 43 43 42 37 37 36 35 35 32 34 31 29 28 32 29 36 38 36 39 35 36 33 33 32 32 31 28 28 27 27 25 23
42 43 43 43 43 44 45 46 46 48 50 46 45 47 44 43 42 40 35 39 36 37 37 31 35 34 32 37 39 42 42 43 41 39 36 36 34 30 28 29 27 22 26 27 27 27 26
43 43 44 44 44 44 45 46 46 48 49 48 44 48 46 40 41 37 37 40 37 37 38 34 36 36 42 44 43 42 40 44 46 46 42 36 34 31 27 26 14 25 27 22 26 25 24
42 43 42 43 44 45 45 45 47 47 49 46 48 50 48 38 41 37 39 39 41 39 36 42 45 43 45 44 40 35 34 28 36 38 42 43 35 31 24 26 26 23 24 27 24 24 27
43 44 43 43 44 44 44 46 46 47 50 47 46 50 51 46 41 38 38 39 41 37 44 46 48 48 46 45 34 29 29 29 31 31 37 35 36 29 28 24 17 28 29 29 27 25 32
43 43 42 43 45 45 44 46 46 48 49 49 47 50 48 49 46 40 38 40 42 44 44 48 47 43 48 35 35 29 30 34 32 31 29 30 30 26 25 23 28 34 28 30 20 26 34
43 43 45 45 46 46 46 46 48 48 49 49 47 50 50 50 49 48 42 42 42 46 41 46 45 43 40 36 34 32 32 32 32 36 33 30 30 28 32 29 25 31 28 23 36 35 34
43 44 44 44 44 45 46 47 47 47 48 48 46 51 53 49 51 54 51 47 46 47 47 46 43 44 46 41 39 37 33 34 32 28 36 32 36 32 33 32 37 30 30 36 34 32 33

GFSGBSN_sfc_dewp_018.txt.gz
Dewpoint
54 54 54 55 56 56 57 58 59 59 58 58 57 57 57 57 57 56 55 54 54 54 54 54 54 53 49 45 45 53 60 60 47 40 34 31 34 32 23 19 19 18 18 17 34 38 40
54 54 54 54 55 55 55 57 57 59 59 58 57 56 56 57 56 56 55 54 54 54 54 52 53 52 48 38 45 52 49 42 37 37 34 33 33 27 23 23 23 25 18 17 36 38 38
54 54 54 54 54 54 55 56 56 58 59 58 58 56 56 56 56 55 55 54 54 54 54 54 52 48 46 30 45 47 41 35 31 33 30 31 31 31 31 26 30 28 16 25 31 33 34
53 54 54 54 54 54 54 55 56 56 58 59 58 57 56 55 55 54 54 54 53 54 54 53 51 47 38 44 44 39 39 33 32 31 32 31 33 31 32 30 29 24 17 16 27 32 34
52 52 54 53 53 54 54 54 54 56 57 58 58 57 56 55 54 54 53 53 53 54 54 53 47 47 42 47 42 42 37 34 32 31 33 30 31 30 29 27 25 21 16 24 21 25 32
51 52 52 53 53 53 54 54 54 55 55 57 58 57 55 55 54 53 52 53 53 52 50 49 46 39 40 35 38 34 34 36 35 35 34 33 27 27 27 25 19 19 22 24 21 21 30
51 51 52 52 53 53 53 54 54 54 55 56 57 57 55 55 53 52 51 49 45 46 46 36 32 35 31 35 34 31 30 30 33 31 27 31 24 24 24 26 26 23 21 21 22 23 20
50 51 51 51 51 51 53 52 52 53 54 56 56 56 55 54 53 53 50 46 45 44 41 45 44 41 39 38 31 30 28 25 31 28 31 26 24 25 27 27 26 25 21 21 23 21 15
50 50 50 50 51 51 51 52 52 52 53 55 56 56 55 53 53 52 49 47 48 47 42 43 46 44 42 33 31 31 26 25 26 27 25 25 23 29 28 25 25 23 24 25 21 14 22
49 50 49 50 50 51 50 52 52 53 53 54 56 55 53 52 48 49 48 50 50 47 39 38 41 40 28 28 29 31 26 24 25 23 27 27 29 25 28 27 26 22 23 27 26 20 16
50 49 49 49 50 50 49 50 52 52 53 54 55 54 52 51 50 49 50 50 49 49 23 31 38 32 25 29 29 27 27 26 22 27 27 26 29 28 27 26 27 25 28 26 29 25 23
48 49 48 48 49 48 49 49 50 51 52 53 55 54 53 51 50 49 49 50 54 38 27 34 28 28 28 29 28 25 24 25 25 23 26 25 28 28 26 27 27 28 26 29 28 27 24
46 49 48 47 48 47 47 49 49 50 51 53 54 54 52 51 46 52 53 54 41 33 32 29 26 29 28 27 27 25 25 23 19 20 24 26 23 30 32 26 29 28 27 23 19 23 22
45 47 48 48 47 46 45 49 49 49 51 52 54 53 53 50 51 52 54 48 34 34 34 31 27 28 26 26 25 24 22 20 24 22 23 23 23 29 31 27 24 26 24 23 18 23 22
45 46 48 48 47 46 46 47 47 47 50 51 53 53 52 51 51 52 50 39 32 36 30 28 27 25 26 25 23 23 24 23 21 21 20 27 26 34 31 34 31 24 22 27 30 32 28
44 46 47 47 47 46 46 46 48 47 49 51 50 50 50 51 51 50 45 35 38 39 36 30 25 25 23 23 22 21 21 23 22 21 31 31 27 35 33 32 32 27 25 23 29 23 23
44 45 45 45 46 46 45 45 46 48 49 50 49 45 50 52 51 46 40 36 37 39 39 36 31 28 23 23 23 23 22 22 23 25 34 36 29 31 34 30 26 28 24 23 27 27 21
44 44 44 44 44 45 45 45 46 47 48 48 46 40 50 51 41 40 39 38 38 38 40 41 38 35 25 26 26 26 25 27 35 36 31 36 34 30 30 32 26 30 25 24 24 18 27
44 43 44 45 44 44 45 45 46 46 48 46 42 43 51 47 36 35 38 38 37 36 38 39 35 34 32 29 26 29 31 37 38 34 32 35 30 25 26 27 30 25 23 27 30 28 24
44 43 43 44 45 45 44 44 45 46 48 47 43 38 45 46 39 33 35 37 36 37 38 40 39 38 32 30 33 32 36 39 41 37 43 37 29 24 23 24 29 27 27 25 28 26 24
43 43 43 44 44 44 44 44 45 45 48 47 44 38 40 37 39 35 35 36 35 33 39 39 36 37 34 27 32 31 37 38 40 39 37 34 27 28 27 31 30 28 27 27 23 24 23
43 43 43 43 43 43 44 44 44 45 48 45 40 42 43 41 38 38 35 33 32 31 34 34 36 36 33 26 29 32 37 36 34 38 32 35 28 32 29 31 30 27 27 27 27 26 25
43 42 42 42 42 43 44 45 44 46 48 43 44 46 44 39 39 38 37 33 31 32 36 34 37 36 32 31 36 37 39 40 39 36 35 34 32 29 26 28 26 25 25 25 26 26 27
42 42 42 42 42 42 42 43 45 47 48 47 46 46 44 38 40 38 38 35 32 34 32 37 36 36 39 42 40 38 40 42 44 44 40 34 32 29 26 24 18 28 28 27 26 25 27
42 42 42 42 42 42 42 44 45 45 46 47 48 46 45 34 41 40 39 37 35 36 38 35 41 39 44 41 37 32 32 31 37 39 41 42 33 30 23 24 25 25 23 21 23 26 29
42 42 42 42 42 44 44 44 45 45 46 47 47 49 46 42 40 41 39 36 36 37 38 43 47 47 47 40 32 28 25 28 30 31 35 37 36 31 28 22 17 26 29 29 27 25 31
43 43 43 43 43 43 44 44 45 45 45 47 45 49 45 45 46 41 38 36 36 42 39 45 45 43 44 34 30 27 29 32 29 28 27 29 29 24 22 20 24 29 30 27 16 21 33
43 43 43 43 43 43 44 44 45 45 45 47 46 49 47 45 47 49 41 38 40 43 40 44 44 43 38 35 33 31 28 32 32 34 31 28 28 25 30 24 20 34 27 23 28 35 34
43 43 43 43 44 44 44 44 45 45 46 47 46 49 50 46 47 50 52 51 42 46 47 45 43 44 45 39 36 35 31 31 30 29 37 27 31 29 30 29 34 31 32 37 35 33 34

GFSGBSN_sfc_dewp_021.txt.gz
Dewpoint
54 53 55 55 55 56 55 57 57 58 59 58 58 57 57 57 57 57 56 55 55 54 54 53 53 54 49 38 33 50 60 59 54 40 35 30 31 31 25 21 20 19 18 18 28 40 40
53 54 54 54 54 54 53 55 57 56 57 58 58 57 57 57 57 56 55 55 55 54 54 54 53 52 46 26 42 53 50 45 40 36 32 31 32 30 27 24 21 24 26 22 31 38 40
52 53 54 54 54 54 54 54 55 56 56 58 58 57 57 56 56 56 55 55 54 54 54 53 52 48 45 24 45 46 44 39 34 35 33 34 33 31 30 26 30 29 20 29 34 37 39
53 53 53 53 53 54 54 54 54 55 56 57 58 58 57 56 55 55 54 54 53 54 54 53 51 46 42 38 45 42 41 36 32 34 31 32 32 31 31 29 28 24 17 26 30 33 37
52 52 53 53 53 53 54 54 54 54 55 56 57 58 57 55 55 54 54 53 53 54 53 53 46 46 41 43 42 44 38 35 34 31 31 31 32 30 29 26 22 20 15 22 28 30 35
51 52 51 53 52 53 53 54 54 54 54 55 56 57 57 55 54 53 53 53 53 52 50 49 46 37 35 31 37 36 40 37 36 35 32 32 28 27 27 23 17 18 19 23 21 25 31
50 51 52 52 52 52 52 53 53 54 54 55 55 56 57 55 54 52 50 48 44 46 45 31 28 28 29 36 36 33 33 35 32 31 27 30 24 23 23 26 26 24 21 20 22 22 26
51 51 51 51 52 52 51 52 52 53 54 54 54 55 56 55 53 53 48 45 43 45 40 44 43 39 39 39 37 32 31 28 30 27 30 26 24 24 27 28 27 25 22 21 23 23 20
49 50 50 51 51 51 52 50 52 52 52 52 53 55 56 54 53 51 47 46 47 47 36 39 44 44 42 41 37 31 27 26 26 27 28 25 23 28 27 24 24 24 24 24 24 20 23
48 49 50 50 50 50 50 50 50 51 52 52 52 54 55 53 49 49 48 49 49 48 34 35 42 43 41 33 29 33 27 24 27 23 26 25 27 26 26 26 25 23 26 25 25 19 19
47 47 49 50 49 49 49 50 49 51 51 52 52 53 54 52 48 49 50 49 49 48 19 24 40 38 30 28 28 28 28 25 22 22 27 24 28 27 26 22 26 24 28 26 26 26 23
46 46 47 49 50 48 48 49 50 49 51 51 52 53 53 51 50 48 49 51 53 34 21 29 36 25 26 28 28 25 26 26 25 23 26 24 28 27 25 28 27 28 26 28 29 27 22
45 45 45 47 48 49 48 49 49 48 49 50 52 53 53 51 46 51 52 53 40 30 28 30 27 28 24 26 26 26 23 21 20 19 22 25 24 29 30 27 28 28 25 21 19 22 21
46 45 45 45 47 49 48 48 48 48 48 49 51 53 53 51 51 51 54 47 34 33 33 36 29 29 25 26 26 26 23 21 22 22 23 21 21 26 31 27 25 26 24 23 17 20 19
47 46 45 45 46 47 48 48 47 48 48 49 50 52 52 53 51 50 48 39 33 34 36 25 28 27 26 26 25 24 23 21 21 22 19 24 23 33 32 33 28 26 22 26 29 30 27
48 46 45 45 44 45 48 47 46 47 49 49 46 47 49 52 51 49 45 36 36 38 38 37 26 27 25 25 24 22 23 23 22 23 25 28 24 33 33 33 33 26 28 21 27 21 21
48 47 46 45 44 46 48 47 46 46 47 49 45 43 47 52 52 45 36 35 35 37 39 39 35 27 26 25 25 23 22 22 25 24 28 33 25 26 33 27 24 26 24 24 26 26 21
48 47 46 45 45 47 48 46 46 47 47 47 43 37 51 51 43 40 36 37 37 33 39 40 40 38 30 26 24 24 24 23 29 34 27 32 29 25 24 30 31 28 26 24 24 19 26
48 48 46 45 46 48 48 47 46 45 46 44 38 42 50 48 37 37 37 37 37 33 35 37 38 37 34 27 24 27 28 31 38 32 32 34 28 24 24 26 30 28 26 28 29 27 24
48 48 46 45 46 47 47 47 45 44 46 45 40 36 44 46 40 36 35 35 37 39 37 38 39 40 36 29 31 30 32 38 39 37 41 35 29 25 22 24 28 26 27 27 27 25 23
48 47 46 45 45 45 45 45 45 44 45 45 41 35 39 36 38 37 35 35 35 35 37 36 35 39 38 30 30 30 37 37 38 39 38 33 27 25 25 25 29 26 26 25 24 24 23
48 47 46 45 44 44 45 45 45 44 45 43 38 40 40 38 38 36 37 33 33 35 36 34 31 35 33 35 30 29 35 35 34 36 33 34 27 28 29 30 29 26 26 26 26 25 25
48 46 46 45 44 44 44 44 44 44 44 40 42 43 42 37 36 35 34 33 33 36 37 35 35 36 36 35 35 33 38 38 36 35 33 31 30 28 23 28 27 24 26 26 25 26 25
48 46 45 44 44 45 45 44 44 44 43 42 43 44 42 33 37 34 34 34 33 34 33 34 32 35 38 43 40 38 38 41 43 42 37 31 29 27 24 25 18 25 29 27 26 26 26
46 46 45 44 44 44 44 44 43 44 44 40 45 44 44 35 34 37 35 35 35 34 34 31 35 31 42 39 35 34 30 32 34 37 41 37 31 28 25 24 25 25 24 26 24 24 29
45 44 44 44 44 43 43 43 43 44 44 41 45 46 45 41 37 38 36 36 35 34 33 37 35 46 44 38 32 28 28 31 30 32 35 34 33 31 26 23 20 27 28 28 28 24 30
44 44 43 43 43 42 42 43 43 44 44 41 46 49 45 40 44 41 39 37 38 36 33 39 45 43 43 33 28 28 26 32 28 28 27 29 28 27 23 21 24 27 29 25 21 23 32
43 42 42 42 42 42 42 42 43 44 44 44 43 48 45 41 42 46 45 40 40 37 35 40 44 42 35 34 33 29 28 31 29 31 29 30 28 26 25 20 20 31 29 21 27 34 35
42 42 42 41 41 42 43 43 44 45 45 45 42 48 50 45 42 46 45 45 47 39 40 46 40 43 43 39 36 33 30 28 30 28 35 26 31 30 29 28 32 33 29 32 35 34 33

GFSGBSN_sfc_dewp_024.txt.gz
Dewpoint
52 52 54 54 55 54 54 55 56 56 57 57 59 58 58 58 58 57 56 55 55 55 54 54 54 53 48 31 27 53 60 59 53 41 34 30 31 29 26 22 21 20 19 19 20 42 42
53 52 52 54 54 54 53 53 55 56 56 56 57 58 58 57 57 56 56 55 55 54 54 54 53 52 45 16 40 52 52 46 43 37 33 30 31 31 28 27 20 23 22 25 34 40 41
51 52 52 53 50 54 53 54 54 54 55 56 56 58 58 57 57 56 56 55 54 54 53 54 53 48 44 25 43 46 43 39 39 34 31 32 34 31 30 28 29 29 23 29 36 38 40
52 51 52 52 51 52 50 52 54 54 54 54 55 56 57 57 56 55 55 54 54 54 53 53 52 47 38 37 43 44 42 39 33 36 34 30 32 31 30 30 27 21 22 26 31 36 37
53 51 51 52 53 52 52 53 53 54 54 54 54 55 56 56 55 55 54 54 53 54 53 53 47 47 36 41 37 42 39 35 33 31 32 30 31 29 28 26 19 20 15 25 29 33 36
49 52 51 51 51 52 52 51 53 53 53 53 54 54 55 56 55 54 53 53 52 51 50 49 46 35 28 28 37 39 41 36 34 34 33 31 28 26 26 21 18 20 19 27 25 27 33
46 48 51 51 51 51 52 52 52 53 53 53 54 55 55 55 55 53 50 46 40 43 45 36 27 24 24 34 40 33 38 37 35 30 28 29 24 23 21 25 25 25 21 20 22 23 30
49 48 48 50 51 51 51 52 52 52 52 53 53 53 53 55 55 52 48 43 43 44 41 43 42 37 36 41 40 35 35 29 30 27 29 27 24 24 26 27 26 24 22 21 23 21 23
47 48 49 49 49 51 51 51 52 51 51 52 52 52 52 55 53 50 46 45 47 48 41 37 42 42 41 42 38 35 29 28 27 27 27 25 23 27 26 25 24 24 24 23 23 21 26
47 47 48 48 49 50 51 51 50 50 50 52 51 51 52 54 49 48 46 50 50 48 31 31 40 42 42 41 32 35 29 25 26 23 27 26 27 25 24 23 24 22 26 25 24 19 19
47 47 47 47 48 48 50 50 50 50 49 47 50 51 51 53 48 47 49 48 49 47 17 26 41 41 39 29 28 29 28 25 22 22 24 21 27 26 24 23 25 23 28 27 26 24 23
48 48 47 47 46 47 49 50 49 49 49 49 50 51 51 53 50 48 49 51 52 35 18 21 35 34 30 28 28 26 26 26 25 22 28 24 27 28 25 26 26 27 26 26 28 26 21
48 48 47 47 46 46 48 49 49 48 49 49 50 51 52 52 48 50 52 51 41 29 25 23 32 28 26 25 25 25 24 23 21 20 22 24 24 28 30 24 28 27 24 21 19 21 20
48 48 48 47 46 46 47 48 49 48 49 48 49 49 51 51 50 50 52 45 33 31 27 34 30 26 22 24 23 26 23 21 21 21 22 21 20 25 30 26 23 26 24 23 16 19 18
48 49 48 47 46 46 46 47 48 49 48 48 48 48 47 49 52 50 47 35 32 33 35 31 27 25 25 25 25 24 24 23 21 22 19 23 20 30 32 32 27 24 22 25 27 29 25
48 48 48 48 47 46 45 46 48 49 48 47 45 45 43 50 52 49 43 35 35 37 39 38 27 28 25 26 23 23 23 24 22 23 24 25 21 31 32 33 32 25 28 23 25 19 19
48 48 48 48 47 46 45 45 47 50 47 47 44 40 41 53 52 46 35 35 35 37 39 38 37 34 27 26 25 24 24 23 24 24 26 29 23 23 33 28 24 26 24 25 26 25 20
48 49 48 48 48 46 46 45 46 48 47 46 43 33 49 51 42 40 34 36 37 36 38 39 40 39 36 28 26 24 23 24 27 30 25 31 27 23 24 29 30 26 25 25 24 20 25
46 47 48 49 48 46 46 45 45 47 46 42 39 39 49 46 34 36 35 35 37 34 34 37 38 39 36 30 24 26 26 29 33 28 29 32 25 22 20 23 29 26 27 27 28 26 24
46 47 48 49 48 47 46 45 45 47 46 43 40 33 42 44 35 33 33 33 34 39 35 37 38 40 37 33 31 26 27 36 37 31 40 33 28 21 17 18 26 26 26 28 27 24 24
45 46 46 47 48 47 46 45 46 47 46 43 40 33 37 33 35 34 33 33 33 33 36 37 35 38 36 33 29 31 35 37 36 41 35 30 24 25 23 25 28 26 25 27 25 25 23
45 45 45 46 48 47 46 46 47 46 45 41 37 36 40 36 34 34 36 33 33 34 37 35 34 35 37 36 32 29 35 34 32 35 33 33 26 26 28 29 28 26 26 26 26 25 24
45 45 45 46 47 46 46 47 46 45 44 40 41 41 41 34 34 33 32 33 33 35 36 36 35 33 35 34 34 34 34 37 36 34 33 30 29 26 23 27 26 24 26 26 27 27 26
46 45 46 45 47 47 46 47 46 45 43 40 40 42 39 31 35 32 31 34 34 35 35 35 37 35 35 42 39 38 37 40 41 40 35 29 28 26 23 24 17 25 29 27 26 25 26
45 45 46 47 46 46 46 45 45 44 43 40 42 41 41 33 34 35 33 33 34 35 35 36 36 35 40 40 37 34 32 31 33 37 37 34 30 27 24 24 23 25 26 26 25 23 27
45 45 45 47 46 46 45 45 44 45 44 40 41 43 43 39 34 35 35 33 32 32 34 36 37 39 42 39 33 31 30 31 30 32 35 33 32 29 24 21 19 26 28 27 26 22 29
43 45 47 46 45 45 45 44 44 44 44 41 39 43 42 38 42 38 36 34 35 34 33 35 36 41 41 31 30 28 29 33 30 30 30 29 28 26 22 21 27 29 28 26 21 24 31
44 46 46 45 45 44 44 44 44 43 43 41 38 44 44 40 40 44 44 38 37 36 33 38 39 40 35 33 33 31 28 31 29 31 32 32 30 25 24 21 25 29 28 24 29 32 33
46 45 44 44 44 44 44 44 43 43 44 42 38 42 44 43 43 45 44 42 42 40 37 39 37 42 41 38 34 32 31 27 29 27 33 29 32 30 30 30 33 32 29 29 33 34 34

GFSGBSN_sfc_dewp_027.txt.gz
Dewpoint
52 52 51 51 54 53 51 52 54 54 56 56 56 57 58 59 58 57 56 56 55 55 54 54 54 54 49 32 19 55 61 59 53 41 30 28 28 28 26 23 21 22 21 20 21 38 44
52 52 52 50 50 50 51 51 54 54 54 54 55 56 57 59 58 57 57 56 55 55 54 54 54 53 44 25 45 54 53 48 43 37 32 30 31 31 28 28 22 24 21 25 35 41 41
53 52 52 53 52 52 49 49 52 53 54 54 54 55 56 57 58 57 56 55 55 54 54 54 53 48 42 26 43 50 45 40 41 35 28 30 33 30 30 29 29 28 24 30 37 40 40
50 51 53 51 51 52 52 50 48 52 53 54 54 54 54 55 56 57 56 55 54 54 54 54 52 47 37 36 42 41 44 40 36 37 33 31 33 31 30 31 27 21 23 27 32 37 39
48 49 50 52 51 51 52 52 51 49 50 53 54 53 53 54 55 56 55 54 54 54 54 53 48 47 30 40 34 38 41 35 33 33 33 30 32 30 30 26 22 23 17 26 30 36 37
47 48 49 51 51 51 51 51 52 50 52 52 53 53 54 54 54 55 54 53 53 51 51 50 46 38 30 24 35 42 41 37 33 33 32 31 30 28 27 23 19 21 20 23 28 30 35
46 46 46 48 49 51 52 51 51 52 49 52 52 53 54 53 55 54 51 47 40 42 46 40 35 29 21 33 41 36 40 37 34 32 30 29 27 26 26 27 24 25 21 20 22 24 33
48 48 46 47 48 49 50 52 51 52 51 51 51 52 52 52 55 53 50 44 42 45 42 43 42 37 34 40 38 38 38 34 33 29 29 28 27 27 26 26 26 25 22 22 23 22 28
49 49 49 47 47 48 48 50 51 51 51 51 51 51 51 51 54 52 48 45 48 48 44 40 42 41 40 40 38 36 35 32 30 28 29 28 25 27 26 25 25 25 24 24 23 22 27
48 48 48 48 48 48 48 49 50 51 50 50 50 51 51 52 51 49 46 49 50 50 32 29 36 40 42 42 36 37 32 30 27 28 29 27 26 26 26 25 25 22 25 25 24 21 19
49 48 48 48 48 47 47 48 49 51 50 49 49 51 50 53 49 47 48 49 50 48 20 26 40 41 42 33 29 32 31 28 26 26 27 25 27 27 25 25 27 24 29 26 25 23 25
49 49 49 48 48 47 47 47 48 49 50 49 49 48 49 51 51 49 50 52 52 37 21 20 36 38 37 31 28 28 29 29 28 26 28 25 27 28 27 26 27 29 27 27 28 27 23
49 49 49 49 48 48 47 47 47 48 49 49 48 48 48 51 47 52 53 50 38 32 28 21 32 31 30 26 27 26 28 26 24 24 24 23 24 27 31 26 28 27 28 23 20 23 22
49 48 49 48 49 48 47 47 46 48 48 50 48 48 49 47 53 51 51 43 34 31 29 31 29 28 28 25 26 26 26 26 23 23 23 22 21 25 30 27 26 27 27 26 18 21 18
49 49 48 48 49 48 48 47 46 47 48 49 47 47 47 49 50 50 47 35 29 32 33 31 25 26 24 24 23 26 26 26 25 25 24 25 21 26 32 32 27 26 26 27 28 30 27
49 49 48 48 48 48 48 47 46 47 48 49 45 44 42 48 51 49 42 33 35 36 37 38 29 28 25 26 25 23 26 26 24 25 28 28 22 31 31 32 31 27 28 26 28 22 19
49 49 49 48 48 48 48 47 46 46 47 49 44 39 41 48 51 44 33 33 34 37 38 38 37 35 29 28 26 26 25 24 26 24 26 28 27 26 31 29 27 27 27 27 27 27 22
48 49 49 48 48 48 48 48 46 46 47 47 41 33 44 46 37 38 33 34 37 34 39 37 39 39 38 31 28 27 27 28 28 29 27 32 31 27 26 28 29 28 28 28 30 23 26
46 47 47 49 48 48 48 48 46 46 47 44 37 37 45 43 31 33 35 33 34 35 34 36 37 39 39 34 27 29 28 31 33 30 31 33 28 25 22 23 29 28 27 28 28 29 26
46 46 46 47 48 49 49 48 46 46 47 44 39 32 40 41 35 32 32 33 33 36 34 36 37 39 37 35 34 29 29 34 35 32 40 35 29 27 21 23 26 28 28 28 29 28 28
45 45 45 46 46 48 49 48 46 46 46 44 40 35 37 32 33 34 32 31 31 32 36 36 35 34 37 33 32 31 35 38 37 41 35 35 28 27 24 22 26 26 26 27 25 28 28
45 45 45 45 46 46 49 48 46 46 46 41 36 36 38 34 33 32 33 31 31 32 32 35 33 34 34 36 35 31 35 36 35 37 35 34 30 28 26 28 27 28 27 27 27 26 26
46 45 45 45 46 46 48 47 46 46 45 40 41 40 39 33 33 31 29 31 32 34 35 34 34 34 36 35 39 38 37 37 38 36 35 34 33 30 25 28 28 28 30 28 28 28 29
45 45 46 45 46 46 46 47 46 46 44 43 41 40 37 32 33 30 30 32 31 33 33 34 37 36 37 41 41 40 39 40 40 39 37 33 33 31 29 28 26 28 29 28 29 28 28
45 46 46 46 46 45 46 47 46 45 45 41 42 41 39 34 33 33 31 31 34 35 35 35 37 39 41 39 38 33 35 35 36 36 37 35 33 29 30 27 26 24 28 28 28 24 28
46 45 46 45 45 45 46 46 46 45 45 40 41 44 42 35 34 32 33 32 32 34 36 36 41 42 41 39 35 33 31 33 33 33 35 33 34 35 27 27 25 31 28 30 27 25 29
45 45 45 45 45 44 46 46 45 45 45 40 40 44 42 37 39 39 34 33 34 35 35 38 38 39 41 35 34 31 33 35 32 33 33 33 32 31 27 32 30 31 28 29 27 28 33
45 45 45 44 44 46 46 46 45 45 45 40 39 43 42 39 39 40 42 38 36 35 33 37 37 38 38 33 35 34 33 34 33 34 34 34 33 33 30 32 29 32 27 29 35 33 35
45 45 45 45 46 46 46 46 45 45 44 42 39 44 44 38 40 46 44 44 42 37 36 37 36 37 38 37 36 35 35 35 33 31 33 34 35 35 34 35 38 33 36 34 34 35 36

GFSGBSN_sfc_dewp_030.txt.gz
Dewpoint
53 52 52 52 52 52 51 53 53 53 54 54 54 55 55 56 58 59 58 57 56 56 55 55 54 55 48 32 20 47 61 57 46 37 28 27 27 27 24 24 25 23 22 22 25 26 41
51 52 53 52 52 51 51 52 52 53 53 53 54 54 55 56 57 58 58 57 56 55 55 55 54 54 42 26 38 51 46 45 36 34 30 29 29 30 28 27 26 26 25 26 28 35 42
49 49 52 53 52 52 51 52 52 50 52 53 53 54 54 54 55 56 57 57 56 55 55 55 54 47 42 30 38 47 44 38 36 31 28 28 30 30 30 27 29 27 26 28 30 39 39
48 49 49 50 52 53 51 51 52 51 49 52 53 53 53 53 54 55 56 56 55 55 55 54 53 47 37 32 35 44 40 36 37 34 32 30 32 32 31 30 27 23 22 23 31 36 39
47 47 48 49 50 51 53 51 51 52 51 48 50 52 53 53 53 54 55 56 55 54 53 53 49 46 30 42 33 31 41 34 34 34 33 30 32 31 30 23 20 22 17 22 26 33 36
48 46 47 49 50 50 50 52 51 50 51 51 48 51 52 53 54 54 55 54 53 52 51 49 46 42 35 21 27 35 34 36 33 33 31 30 32 27 23 19 15 17 17 19 24 30 34
47 49 48 48 49 49 48 49 52 51 50 50 49 50 52 53 52 54 53 51 45 44 47 39 35 33 19 28 39 36 37 34 34 34 31 33 27 21 18 21 23 23 19 17 21 27 30
50 50 48 50 49 49 46 48 49 52 51 50 50 49 51 51 51 54 53 47 44 45 39 40 40 37 36 33 33 35 38 31 34 30 30 28 25 21 23 23 24 25 21 20 22 23 26
50 50 50 49 50 50 48 48 48 50 52 50 51 50 50 50 52 53 51 49 48 49 44 38 41 37 35 37 31 29 35 32 31 28 28 26 23 26 24 25 25 25 21 23 21 23 24
50 50 50 50 49 49 49 49 48 49 49 52 50 50 51 50 49 50 48 50 50 50 35 23 32 35 37 34 31 30 33 30 28 26 26 27 25 24 24 22 24 22 23 23 23 22 17
49 49 49 50 49 49 48 48 48 48 48 50 50 50 50 51 50 48 47 52 52 50 15 20 35 39 38 30 26 30 32 30 26 26 28 23 24 24 24 21 24 21 26 25 24 22 23
50 50 49 49 49 49 48 48 48 48 48 49 51 49 50 48 46 50 51 53 51 37 18 19 35 37 36 34 26 28 30 29 26 24 26 22 25 25 22 25 25 28 27 27 27 25 22
49 49 50 49 49 49 49 48 48 48 48 48 49 50 48 44 41 49 53 51 38 29 21 16 30 35 31 27 26 25 26 26 23 23 24 22 22 23 27 24 28 26 24 21 19 22 20
50 49 49 49 49 49 49 49 48 48 48 48 49 49 48 45 44 49 51 45 26 16 21 28 29 31 28 22 24 25 24 23 23 20 20 19 19 22 27 25 24 26 22 21 18 20 16
50 50 49 49 49 49 49 49 48 48 47 48 49 48 48 47 47 49 46 35 18 20 23 25 25 28 28 23 21 25 24 21 23 24 20 21 18 24 28 28 26 26 24 23 25 30 23
49 49 50 49 49 49 49 49 48 48 47 48 46 44 44 48 50 46 39 31 21 24 26 25 21 24 24 25 20 23 25 24 22 23 23 24 20 24 30 31 30 28 27 25 26 21 18
49 49 49 49 49 48 49 48 48 48 47 48 44 38 43 48 48 41 33 31 25 26 31 33 27 23 24 27 23 23 22 25 25 25 23 22 23 28 32 29 23 28 25 26 26 25 20
49 48 48 48 49 49 48 48 48 48 47 47 42 34 45 47 36 37 34 32 29 25 34 35 36 32 32 27 26 23 22 23 27 25 26 26 26 23 20 27 29 25 24 27 26 23 28
48 46 46 47 49 49 49 48 48 48 48 45 37 39 46 43 30 32 31 31 30 28 29 36 34 36 38 34 28 27 25 31 32 28 26 29 26 24 19 25 28 26 27 26 28 30 23
45 45 45 46 47 48 49 48 48 48 48 45 38 32 39 41 32 30 26 26 28 31 29 33 34 37 37 36 34 30 28 32 35 28 40 34 24 22 21 18 20 25 24 26 26 27 24
45 45 45 46 46 47 47 48 49 48 48 44 39 35 36 32 33 29 30 28 28 26 30 32 33 33 35 34 32 31 30 36 33 37 31 32 24 24 19 18 17 18 17 21 22 23 22
45 45 46 45 46 46 47 49 49 48 47 42 35 36 39 34 32 27 30 26 27 25 24 29 32 34 34 33 30 34 34 32 33 35 32 34 26 28 25 21 21 20 19 18 20 19 18
45 45 45 46 46 46 46 47 49 48 46 40 42 37 37 31 32 28 30 27 26 29 28 26 26 29 31 33 35 39 39 37 36 36 35 34 31 29 23 28 26 28 27 22 22 22 24
46 46 46 46 46 46 46 46 48 48 45 42 39 38 38 30 31 28 27 28 27 28 28 28 31 34 36 37 39 38 36 40 40 38 38 36 34 33 29 33 31 23 28 25 24 23 26
45 45 46 46 45 45 46 45 47 47 46 40 41 40 37 36 31 28 28 27 28 30 29 29 36 35 40 38 33 28 32 37 37 39 38 38 35 33 36 28 25 24 27 28 29 26 27
44 46 46 46 45 45 45 44 47 46 46 41 41 43 41 34 31 31 30 31 30 31 33 32 37 42 42 40 37 30 26 23 30 35 36 35 37 38 32 28 31 27 26 29 29 25 26
44 45 45 45 45 45 44 45 47 46 45 41 43 46 41 35 36 35 34 35 31 30 32 35 39 39 41 39 39 34 30 25 23 34 36 35 35 36 33 34 29 29 28 29 27 29 31
46 45 44 45 45 44 44 45 46 46 45 41 41 47 41 37 39 40 39 36 32 32 34 35 37 39 39 36 36 35 37 36 30 29 35 34 35 37 35 36 33 32 29 30 34 37 35
45 45 45 45 45 44 45 46 46 46 46 42 40 45 46 40 41 41 41 42 42 34 34 41 33 34 36 35 38 38 40 39 33 34 36 34 36 35 34 33 37 34 34 35 37 34 36